Showing default

TRANSIT 5B-2, 704

Orbit data source: Space-Track

TRANSIT 5B-2, 704 is a payload satellite owned by USN BuWeps (US) in LEO that was launched on Thu, 05 Dec 1963 UTC via a THOR ABLESTAR launch vehicle from the Air Force Western Test Range (AFWTR). Payload-class satellites include a variety of spacecraft equipped with specific instruments for various scientific and technological missions. These include communications satellites like Starlink; space stations such as the ISS; scientific satellites like the Hubble; Earth observation satellites from companies like Planet Labs, Umbra, and HawkEye 360; GPS; miniature CubeSats for education and research; and military/defense satellites.

Loading next visibility...
Identifier
704, 1963-049B
Orbit
LEO
Country
Flag of USUS
Related business
Manufacturer
APL
Mission
Spacecraft
Bus & Motor
TRANSIT 5, Unknown motor
Mass
75 kg wet, 75 kg dry
Launch date (UTC)
1963-12-05 (62 years ago)
Launch vehicle
THOR ABLESTAR
Launch site
Air Force Western Test Range (AFWTR)
Object type
Payload
Rocket body
Debris
Shape & HBR
Unknown
Radar Cross Section
Large (>1 m²)

Expand to show TLE details & history
Last TLE update: 16 hours ago

TLE from 16 hours ago
0 TRANSIT 5B-2
1 00704U 63049B   25310.79983443  .00000065  00000-0  91211-4 0  9990
2 00704  89.9208  72.2191 0033855 216.2901 297.3669 13.47097285 41380
Epoch: 2025-11-06T19:11Z
TLE epoch observation values (Epoch: 2025-11-06T19:11:45.694Z)
Latitude
26.72196°
Longitude
-82.01392°
Altitude
1,074.72 km
Speed
7.323 km/s
True Right ascension
16h 48m 43s
True Declination
26° 35' 24"
Sunlit
Object was in daylight at epoch
Visualization orbit readout
Latitude
Unknown
Longitude
Unknown
Altitude
Unknown
Speed
Unknown
Apparent Right ascension
Unknown
Apparent Declination
Unknown
Sunlit
N/A
Visualization observer readout
Local Sidereal Time
07:42:13
Azimuth
Unknown
Elevation
Unknown
Doppler factor
Unknown
Orbital elements
Apogee altitude
1,105.261 km
Perigee altitude
1,054.762 km
Semi-major axis
7,458.148 km
Eccentricity
0.00339
Inclination
89.9208°
RAAN
72.2191°
Arg. of periapsis
216.2901°
True anomaly
297.0217°
Mean anomaly
297.3669°
Eccentric anomaly
297.19437°
Mean motion
3.36974 °/min
Orbital period
106.83 mins
BSTAR
0.000091211
Loading maneuver chart data...
Computing Atmospheric mass density...
Loading historical data...
Loading historical data...
Loading historical data...
Loading historical data...
Loading historical data...
Loading historical data...
Loading historical data...

Documentation

Showing up to 5 results
|